Weather History for KGNR - February, 2012

Change the Weather History Date:

Wednesday, February 8, 2012

  Actual Average (KMLT) Record (KMLT)
Temperature  
Mean Temperature 16 °F 16 °F  
Max Temperature 28 °F 26 °F 48 °F (1951)
Min Temperature 3 °F 6 °F -31 °F (1993)
Degree Days  
Heating Degree Days 50 49  
Month to date heating degree days 398  
Since 1 July heating degree days 5144  
Cooling Degree Days 0 0  
Month to date cooling degree days 0  
Year to date cooling degree days 0  
Moisture  
Dew Point -4 °F    
Average Humidity 43    
Maximum Humidity 66    
Minimum Humidity 25    
Precipitation  
Precipitation 0.00 in 0.06 in 1.08 in (1983)
Month to date precipitation 0.47  
Year to date precipitation 3.40  
Sea Level Pressure  
Sea Level Pressure 30.10 in    
Wind  
Wind Speed 7 mph (West)    
Max Wind Speed 10 mph    
Max Gust Speed 22 mph    
T = Trace of Precipitation, MM = Missing Value Source: NWS Daily Summary

Daily Weather History Graph

Daily Weather History Graph

Search for Another Location

Airport or City:

Trip Planner

Search our weather history database for the weather conditions in past years. The results will help you decide how hot, cold, wet, or windy it might be!

Date:

Astronomy

Feb. 08, 2012 Rise Set
Actual Time 6:51 AM EST 4:54 PM EST
Civil Twilight 6:20 AM EST 5:25 PM EST
Nautical Twilight 5:45 AM EST 6:00 PM EST
Astronomical Twilight 5:10 AM EST 6:35 PM EST
Moon 6:16 PM EST (2/8) 6:47 AM EST (2/8)
Length of Visible Light 11h 05m
Length of Day
10h 03m
Full, 99% of the Moon is Illuminated
Feb 8
Full
Feb 14
Last Quarter
Feb 21
New
Feb 29
First Quarter
Mar 8
Full

Hourly Weather History & Observations

Time (EST) Temp. Windchill Dew Point Humidity Pressure Visibility Wind Dir Wind Speed Gust Speed Precip Events Conditions
12:56 AM 5.0 °F -6.9 °F -6.0 °F 61% 30.18 in - Variable 6.9 mph - N/A   Unknown
1:56 AM 3.0 °F -10.5 °F -6.0 °F 66% 30.19 in - NW 8.1 mph - N/A   Unknown
2:56 AM 3.9 °F -10.4 °F -7.1 °F 60% 30.18 in - NW 9.2 mph - N/A   Unknown
3:56 AM 3.9 °F -11.3 °F -9.0 °F 55% 30.17 in - NNW 10.4 mph - N/A   Unknown
4:56 AM 3.9 °F -10.4 °F -9.0 °F 55% 30.17 in - NW 9.2 mph 17.3 mph N/A   Unknown
5:56 AM 6.1 °F -8.7 °F -8.0 °F 53% 30.17 in - NW 10.4 mph 21.9 mph N/A   Unknown
6:56 AM 6.1 °F -8.7 °F -9.0 °F 50% 30.17 in - NNW 10.4 mph - N/A   Unknown
7:56 AM 7.0 °F -1.7 °F -9.0 °F 48% 30.19 in - NW 4.6 mph - N/A   Unknown
8:56 AM 9.0 °F 2.4 °F -9.0 °F 44% 30.20 in - Variable 3.5 mph - N/A   Unknown
9:56 AM 15.1 °F - -8.0 °F 36% 30.17 in - Calm Calm - N/A   Unknown
10:56 AM 19.9 °F 14.9 °F -6.0 °F 32% 30.16 in - Variable 3.5 mph - N/A   Unknown
11:56 AM 23.0 °F 17.0 °F -5.1 °F 29% 30.12 in - Variable 4.6 mph - N/A   Unknown
12:56 PM 25.0 °F 19.3 °F -5.1 °F 27% 30.09 in - Variable 4.6 mph - N/A   Unknown
1:56 PM 28.0 °F 22.8 °F -4.0 °F 25% 30.06 in - Variable 4.6 mph - N/A   Unknown
2:56 PM 27.0 °F 18.0 °F -2.9 °F 27% 30.05 in - South 9.2 mph - N/A   Unknown
3:56 PM 27.0 °F 20.5 °F -2.9 °F 27% 30.04 in - South 5.8 mph - N/A   Unknown
4:56 PM 25.0 °F 18.1 °F -0.9 °F 33% 30.03 in - South 5.8 mph - N/A   Unknown
5:56 PM 21.9 °F 17.2 °F -0.0 °F 38% 30.04 in - South 3.5 mph - N/A   Unknown
6:56 PM 21.0 °F 13.4 °F 1.0 °F 42% 30.03 in - South 5.8 mph - N/A   Unknown
7:56 PM 19.9 °F 10.1 °F 1.9 °F 46% 30.02 in - South 8.1 mph - N/A   Unknown
8:56 PM 15.1 °F 9.4 °F 1.0 °F 54% 30.01 in - East 3.5 mph - N/A   Unknown
9:56 PM 17.1 °F 10.0 °F 1.0 °F 50% 30.00 in - East 4.6 mph - N/A   Unknown
10:56 PM 21.9 °F 15.7 °F -0.9 °F 37% 29.99 in - Variable 4.6 mph - N/A   Unknown
11:56 PM 19.9 °F - -0.9 °F 40% 29.96 in - Calm Calm - N/A   Unknown